Theta_e
291 291 285 285 286 285 285 283 283 286 289 285 285 285 288 288 288 287 288 289 289 289 292 292 292 293 293 294 295 297 298 300 302 303 305 307 307 310 312 316 320 319 322 324
288 286 287 287 287 285 285 284 283 286 287 285 285 284 288 287 287 287 287 287 288 288 289 289 290 291 292 292 294 296 298 300 302 304 305 307 308 309 311 316 315 318 318 319
285 286 287 285 285 284 285 284 282 281 284 286 283 284 284 287 288 288 288 288 288 287 286 287 288 289 291 291 292 294 296 298 302 303 305 306 308 309 310 311 314 320 318 318
286 288 285 285 283 284 280 286 284 282 279 279 283 276 283 285 285 285 286 286 286 286 286 286 287 287 288 290 293 293 295 298 302 303 303 304 305 304 307 310 315 319 319 317
286 284 284 283 283 285 282 286 283 280 278 278 280 277 281 283 282 282 284 285 285 285 285 285 286 287 288 290 291 292 295 297 302 303 302 304 306 307 308 310 312 315 316 316
286 287 285 285 286 286 286 284 284 280 280 276 275 276 278 280 279 282 284 284 284 284 284 285 286 287 288 290 290 291 293 297 303 303 302 305 304 306 308 310 311 313 314 315
284 283 285 285 284 287 284 282 277 275 276 275 276 276 280 280 282 283 282 283 283 283 283 283 283 285 286 287 289 289 292 294 300 302 304 305 306 307 306 308 310 310 312 313
278 278 284 284 283 281 279 279 275 269 271 273 279 273 279 281 285 285 284 283 283 282 282 282 283 284 285 286 288 289 290 292 296 299 303 305 307 307 308 308 309 310 310 312
279 279 283 283 284 283 280 279 280 274 275 270 277 280 284 283 283 282 282 281 280 280 281 281 282 283 284 285 286 287 289 290 293 295 299 300 301 304 306 308 310 310 310 309
279 276 281 282 285 283 282 282 276 276 269 268 275 276 277 277 278 280 280 279 280 280 280 281 281 282 284 285 285 286 288 288 291 292 294 296 297 298 300 304 305 307 308 306
281 277 280 280 280 281 280 279 278 277 275 271 269 274 279 277 279 278 280 280 279 279 279 280 281 282 283 284 284 285 286 287 288 290 291 293 294 296 297 298 300 302 301 299
282 279 276 280 283 284 283 280 279 274 272 275 274 274 283 281 281 281 280 280 280 280 280 280 280 281 281 282 283 283 284 285 287 288 289 290 292 293 294 295 297 298 295 296
282 278 274 278 279 280 278 281 280 279 277 272 271 275 284 283 282 282 281 280 280 280 279 279 279 279 280 281 282 282 283 284 285 286 287 288 288 289 290 291 293 294 293 293
284 279 276 274 278 277 276 278 280 278 273 275 276 277 280 281 280 280 281 281 280 280 279 279 278 279 279 280 281 281 283 284 284 285 285 285 285 287 288 289 291 291 292 291
282 274 276 277 278 278 276 274 275 274 276 273 277 274 278 280 280 280 282 281 279 279 278 278 277 278 278 278 279 281 282 283 284 284 283 284 284 286 286 286 287 288 288 287
281 275 272 271 276 276 274 276 277 274 275 275 275 273 281 283 283 281 282 280 278 278 278 277 277 277 276 277 278 280 280 282 283 282 282 283 284 284 285 285 285 286 286 286
277 276 272 272 272 272 272 275 277 278 278 277 273 281 281 279 280 281 280 279 278 277 277 276 276 275 276 276 278 278 280 281 281 281 281 282 283 283 283 284 284 284 284 284
273 273 273 271 271 270 282 281 282 280 281 280 280 278 280 279 282 282 282 278 278 277 276 275 275 274 275 276 277 278 279 279 280 281 281 282 282 282 282 282 282 283 283 283
279 276 273 269 271 276 279 278 278 277 280 285 282 281 280 280 280 281 282 280 278 277 276 276 276 275 275 275 277 277 276 277 278 278 279 281 281 281 281 281 281 282 282 283
276 277 273 268 268 270 278 281 282 281 276 284 284 283 280 280 276 280 281 279 278 277 277 275 275 274 273 274 277 277 275 274 275 278 278 280 282 282 281 282 282 282 283 283
271 271 270 271 269 274 281 281 281 275 278 282 283 281 280 278 280 281 280 278 277 276 276 276 275 273 272 273 275 275 274 272 274 278 279 279 280 281 282 282 283 283 283 283
271 269 267 271 269 268 280 278 278 283 280 282 282 281 281 281 280 280 279 278 277 276 275 274 274 273 271 271 272 272 271 271 274 277 278 279 280 281 282 282 283 283 282 281
271 277 275 274 275 281 281 284 285 283 282 281 282 282 282 280 280 280 279 278 277 276 275 274 273 273 271 270 270 270 269 271 273 275 277 279 280 280 281 282 282 282 283 281
273 276 274 273 280 278 279 282 283 283 282 283 283 282 282 280 280 279 278 278 277 275 274 272 271 271 270 269 269 268 269 270 272 274 276 278 280 280 280 281 281 281 281 280
276 274 275 274 277 280 280 280 282 283 282 280 281 282 281 281 279 279 278 278 277 275 272 271 270 270 269 268 268 267 267 269 273 273 275 277 279 280 279 280 280 279 279 280
275 277 274 277 283 282 283 284 283 281 281 281 279 278 280 280 280 280 279 279 277 275 273 271 271 270 270 269 268 267 266 268 270 274 274 275 278 279 279 278 277 280 279 279
Wind_Speed
3 0 3 4 5 5 9 12 15 19 16 12 14 22 17 3 1 2 4 10 13 18 21 23 21 21 21 18 19 19 18 17 13 10 9 10 9 8 9 7 7 2 5 6
0 2 2 4 5 8 10 11 12 11 5 18 15 18 17 6 3 4 8 14 19 23 24 21 21 22 19 19 19 19 18 18 14 10 9 9 8 8 7 6 8 8 3 1
2 4 2 3 6 9 13 5 15 20 26 9 10 13 7 9 5 6 9 18 22 24 23 21 21 22 20 19 18 18 20 21 18 17 10 10 9 8 7 7 7 8 5 3
4 1 3 6 4 7 6 13 20 18 9 6 6 8 12 3 5 2 17 21 23 23 22 19 21 20 20 18 16 17 19 19 18 17 13 16 10 10 8 8 5 5 6 3
3 3 4 3 2 5 9 19 20 8 6 8 4 6 6 2 4 14 21 24 25 24 23 24 22 20 19 17 14 16 18 18 19 15 14 12 12 8 7 7 8 8 4 4
5 1 3 4 10 4 13 13 11 5 4 6 4 7 7 7 8 21 25 26 25 24 22 22 22 21 17 15 13 15 17 18 16 12 14 14 12 10 7 7 6 7 5 4
3 3 1 2 6 4 10 10 5 3 4 9 4 8 4 4 9 19 24 25 24 21 20 19 20 19 18 17 15 14 15 17 17 10 10 10 11 9 9 9 6 7 6 6
4 2 3 1 2 4 4 4 4 7 10 13 9 6 5 2 10 19 20 21 21 21 19 19 18 18 17 17 16 14 13 14 13 13 10 8 7 4 6 8 6 6 4 5
4 3 4 1 1 1 3 3 3 6 6 5 4 6 13 3 14 18 20 22 21 21 19 19 19 17 16 16 17 14 13 13 12 12 9 5 7 7 7 8 6 5 4 4
2 7 2 2 2 1 2 2 3 4 7 9 9 11 6 15 19 17 19 19 19 19 19 18 17 17 15 15 15 14 12 12 11 10 9 7 7 7 8 8 8 4 1 3
3 1 2 2 7 2 4 4 3 2 4 6 9 5 2 7 12 16 17 18 18 18 17 16 16 16 15 13 12 13 12 12 11 10 9 8 7 7 8 7 6 3 3 5
4 2 6 3 3 1 3 3 4 3 1 6 8 10 5 3 8 13 15 16 16 15 16 15 15 15 15 15 13 12 12 11 11 11 9 8 8 7 6 5 3 3 4 5
4 3 6 4 3 3 5 7 8 4 4 11 7 7 6 4 11 12 14 15 15 15 16 15 14 14 14 14 14 13 12 11 9 9 7 7 6 5 5 4 3 1 10 4
3 4 7 8 6 2 7 9 10 9 7 11 15 20 16 6 8 10 13 12 14 13 14 15 14 13 13 13 13 13 11 10 9 8 7 7 6 4 4 4 5 6 11 5
4 6 7 14 16 15 17 15 13 16 18 9 15 9 15 12 7 5 10 10 12 13 14 14 15 14 14 14 13 12 11 10 9 7 7 7 5 5 5 5 7 11 9 9
4 3 3 8 6 6 13 17 16 16 16 20 21 26 13 2 3 6 8 10 12 12 13 14 14 14 14 15 14 13 12 10 8 9 9 8 7 8 8 8 12 10 11 11
6 3 2 7 4 9 9 9 11 7 9 7 9 7 5 3 5 4 7 8 10 11 11 13 14 13 13 14 14 13 11 9 9 9 10 9 10 11 10 12 10 11 12 14
6 3 1 7 5 5 1 3 3 8 12 16 13 5 5 4 2 5 4 6 9 9 10 11 11 12 12 12 13 13 11 12 12 12 13 12 12 13 13 12 10 8 9 15
6 4 3 5 4 10 9 5 5 6 8 8 17 8 5 4 3 7 5 3 6 7 7 6 8 9 10 11 13 12 14 13 14 14 14 13 14 14 13 13 11 9 13 14
4 5 5 2 5 6 2 4 2 1 7 5 7 7 9 7 4 3 5 2 3 4 6 6 7 8 11 11 12 11 11 13 15 15 14 14 14 12 13 10 8 8 10 13
5 5 12 9 6 11 8 8 4 1 2 6 8 8 10 6 1 6 5 3 2 3 6 7 6 6 8 11 10 10 10 12 11 10 11 10 9 9 8 7 7 8 10 10
11 11 7 6 8 12 11 7 8 0 2 5 8 8 9 5 7 6 6 5 4 2 3 6 6 7 7 8 8 8 9 10 10 9 9 8 8 7 6 8 7 9 9 12
6 8 7 13 10 1 13 2 6 1 2 5 8 8 9 8 7 8 7 6 5 3 2 2 4 6 6 7 8 7 7 8 8 6 7 8 7 7 7 7 7 6 7 6
7 5 6 1 9 19 13 13 9 7 6 5 6 9 10 9 8 7 4 4 4 4 3 1 3 4 5 6 6 6 8 8 5 5 7 7 7 7 7 7 6 5 6 6
3 11 7 8 17 10 17 14 16 13 7 4 3 7 11 8 8 7 6 5 4 4 3 2 1 2 3 4 4 5 6 8 6 5 5 5 4 7 8 8 7 8 10 9
10 13 9 14 13 11 12 4 6 14 16 13 11 6 4 7 9 6 5 5 6 5 4 4 4 2 1 2 2 4 5 5 4 3 4 4 3 3 4 4 6 13 12 13
Wind_Direction
60 135 16 358 358 324 311 309 300 300 315 301 295 295 292 359 174 203 303 325 324 319 319 321 321 315 310 304 301 299 291 286 278 271 257 243 244 231 233 216 238 197 210 273
36 191 49 310 304 313 308 298 296 312 260 322 296 292 293 204 252 292 324 327 322 323 323 325 319 314 313 310 302 300 297 291 278 268 260 261 248 237 243 211 229 225 196 94
293 57 327 289 321 332 327 295 314 310 322 271 295 268 188 211 234 273 313 329 329 329 326 325 322 318 316 315 313 313 304 293 280 270 270 252 251 252 242 227 242 219 209 289
281 94 302 306 282 354 309 349 316 315 321 308 22 291 318 132 237 285 333 332 329 333 329 324 323 320 317 313 313 307 296 284 278 263 254 254 234 232 230 234 243 232 220 236
68 282 289 266 342 341 269 320 304 314 281 312 159 262 328 192 320 331 328 333 338 333 330 324 323 320 314 314 322 308 300 293 275 257 250 244 234 250 255 256 210 238 215 235
258 334 263 316 315 295 312 302 295 248 250 251 102 2 290 11 339 326 331 338 335 330 326 321 321 320 318 318 324 316 309 306 282 247 242 237 240 235 239 254 253 249 248 267
257 203 171 300 322 154 354 329 324 290 279 308 156 307 322 18 324 335 329 331 333 331 326 323 322 321 321 323 327 322 316 318 331 254 230 229 232 240 258 254 252 266 261 253
325 257 188 47 12 311 347 335 359 307 321 314 297 242 323 199 331 336 328 334 332 333 328 326 324 321 322 323 324 320 319 324 340 338 355 2 312 273 270 258 257 263 282 257
297 251 141 155 342 240 97 307 19 270 251 265 232 250 269 221 340 334 335 339 336 335 332 328 328 327 326 326 327 326 326 329 339 341 337 330 325 314 305 292 291 262 267 325
99 287 132 130 208 141 282 69 244 195 297 309 308 293 283 345 335 337 339 340 335 334 333 331 330 328 327 332 331 327 332 336 335 338 343 348 335 315 299 288 272 280 328 21
158 263 151 200 201 180 177 207 211 284 267 304 310 322 82 342 340 341 338 339 335 335 335 335 332 332 333 337 335 333 343 344 342 341 342 339 333 317 297 293 297 334 41 43
173 296 271 265 139 17 225 253 224 269 226 255 272 276 144 16 13 351 339 337 335 335 337 337 338 340 341 345 343 344 345 344 343 341 338 333 325 325 310 299 324 352 59 55
170 203 292 206 152 167 235 226 225 262 280 254 277 275 185 14 11 350 337 340 334 336 339 342 343 346 347 345 348 350 350 348 343 344 346 345 349 347 334 345 3 297 81 59
213 250 245 263 319 353 255 248 227 228 259 270 245 280 294 356 337 342 335 340 335 339 343 344 346 351 350 346 348 351 354 352 349 354 0 9 6 5 20 23 56 69 83 69
233 261 265 264 269 269 266 260 247 234 232 249 272 284 290 312 291 291 300 334 337 345 347 348 347 351 349 350 351 351 354 358 355 7 16 19 16 22 42 44 63 68 78 71
205 272 327 281 276 276 272 260 242 231 249 250 264 280 270 199 275 278 307 334 332 341 345 343 346 348 350 349 349 353 1 3 5 22 24 22 34 46 54 55 57 65 72 77
181 237 280 268 343 313 270 238 201 206 202 211 219 241 150 215 231 286 307 335 323 330 339 342 344 340 343 344 345 352 357 10 20 32 32 35 41 56 51 50 63 74 84 73
159 179 211 288 307 250 288 194 211 226 251 214 256 225 195 230 220 268 248 308 312 325 339 339 332 332 340 340 348 346 359 16 23 32 33 33 47 50 54 56 56 70 99 91
202 189 238 267 274 302 281 181 197 202 291 233 227 242 202 167 248 241 213 252 293 312 324 337 324 332 336 354 348 353 1 10 19 21 28 28 37 44 47 53 44 48 63 72
160 245 229 172 253 257 18 138 142 154 276 156 191 197 167 157 243 99 176 204 289 315 327 342 357 353 347 357 357 6 11 11 8 8 12 22 25 36 40 38 36 45 59 68
167 195 223 218 263 274 259 148 157 202 321 164 182 170 163 192 349 115 143 168 233 318 333 345 8 27 358 348 359 19 15 14 357 7 18 22 25 42 37 38 46 52 63 71
178 171 197 188 220 269 138 118 208 51 121 179 181 175 184 169 150 162 169 178 203 248 322 350 354 11 17 5 355 24 22 352 352 12 17 24 29 38 34 42 46 59 66 70
228 212 186 204 216 99 198 278 211 7 219 196 190 172 186 171 179 179 196 188 202 216 282 349 350 350 16 15 11 8 3 354 356 15 26 26 44 45 37 44 42 58 67 85
228 164 232 157 231 238 235 245 240 220 222 209 202 177 179 184 168 177 179 189 186 194 227 318 328 1 5 3 14 2 345 346 352 31 38 20 34 47 56 55 45 50 65 66
154 155 204 255 271 279 258 234 238 218 204 188 173 184 191 174 179 175 186 188 186 193 171 194 244 326 356 357 4 5 352 344 353 9 22 26 35 62 67 54 50 48 39 44
181 212 210 247 253 240 266 193 216 214 203 191 174 184 193 175 180 176 181 166 176 188 165 186 200 218 258 348 4 358 351 352 340 46 43 23 43 66 90 106 87 75 82 78